[[{"header":{"parameterUnit":"m.s-1","parameterCategory":1,"la1":30.2991,"la2":30.254,"lo1":-89.0895,"lo2":-89.0444,"dy":0.0017,"dx":0.0017,"nx":28,"ny":28,"refTime":"2025-09-17T21:00:00:Z","depth":0,"parameterNumber":2,"parameterNumberName":"U-component_of_WINDS"},"data":[0,0,0,0,0,0,0,0,0,0,0,0,0,0,0,0,0,0,0,0,0,0,0,0,0,0,0,0,0,0,0,0,0,0,0,0,0,0,0,0,0,0,0,0,0,0,0,0,0,0,0,0,0,0,0,0,0,0,1.0876,1.0875,0,1.0839,1.0839,1.0838,1.0827,1.0828,1.0828,1.0828,1.0787,1.0786,1.0784,0,0,0,0,0,0,0,0,0,0,0,0,0,1.0932,1.0931,1.0876,1.0875,1.0875,1.0839,1.0839,1.0838,1.0827,1.0828,1.0828,1.0828,1.0787,1.0786,1.0784,0,0,0,0,0,0,0,0,0,0,0,0,0,1.0903,1.0931,1.0876,1.0865,1.0864,1.0839,1.0839,1.0838,1.0827,1.0828,1.0828,1.0828,1.0788,1.0786,1.0784,1.0766,0,0,1.0778,1.0777,0,0,0,0,0,0,0,0,1.0904,1.0901,1.0867,1.0866,1.0864,1.0838,1.0843,1.0814,1.0827,1.0841,1.0828,1.0828,1.0804,1.08,1.0793,1.0764,1.0763,1.0778,1.0777,1.0776,1.0776,0,0,0,0,0,0,0,1.0906,1.0902,1.0861,1.0867,1.0865,1.0861,1.0857,1.0838,1.0821,1.084,1.0839,1.0835,1.0803,1.0795,1.0792,1.0762,1.0778,1.0776,1.0775,1.0774,1.0714,1.0713,0,0,0,0,0,0,1.0911,1.0904,1.0862,1.086,1.0886,1.086,1.0855,1.0846,1.0821,1.0818,1.0835,1.0835,1.0798,1.0794,1.079,1.0766,1.0776,1.0774,1.0773,1.0714,1.0714,1.0713,0,0,0,0,0,0,1.0912,1.0907,1.0864,1.0882,1.0876,1.0858,1.0848,1.0845,1.0837,1.0817,1.0814,1.083,1.0798,1.0793,1.0772,1.0764,1.0773,1.0772,1.0715,1.0714,1.0714,1.0718,0,0,0,0,0,0,1.0914,1.0908,1.0902,1.0882,1.0875,1.0848,1.0848,1.0844,1.0834,1.0834,1.0812,1.0808,1.0798,1.0775,1.077,1.0762,1.077,1.0715,1.0715,1.0714,1.0718,1.0717,1.0717,0,0,0,0,0,1.0916,1.0905,1.0902,1.0897,1.0868,1.0847,1.0843,1.0832,1.0834,1.0827,1.0814,1.0809,1.0766,1.0773,1.0767,1.0758,1.0716,1.0715,1.0714,1.0719,1.0718,1.0717,0,0,0,0,0,0,1.0924,1.0902,1.0899,1.0881,1.0866,1.0846,1.0837,1.0832,1.0816,1.0816,1.0801,1.0796,1.0776,1.0765,1.0773,1.0738,1.0741,1.0738,1.0746,1.0745,1.0744,1.0747,1.0769,0,0,0,0,0,1.0924,1.091,1.0891,1.0877,1.087,1.0855,1.0845,1.0838,1.0822,1.0815,1.0801,1.0784,1.0766,1.0755,1.0738,1.0717,1.071,1.0707,1.0707,1.0706,1.0704,1.0689,1.0687,1.071,1.071,1.071,0,0,1.0923,1.0909,1.0902,1.0878,1.0866,1.0851,1.0849,1.0834,1.0822,1.0812,1.0792,1.078,1.076,1.0738,1.0728,1.0729,1.0696,1.0705,1.0704,1.0703,1.0688,1.0686,1.0684,1.0709,1.0709,1.0709,0,0,1.0914,1.0903,1.0889,1.0877,1.0858,1.0848,1.0844,1.0824,1.0816,1.0795,1.0787,1.0772,1.0743,1.0728,1.0717,1.07,1.0694,1.0694,1.069,1.0675,1.0674,1.0672,1.0664,1.0661,1.0693,1.0693,1.0693,0,1.0915,1.0893,1.0882,1.0867,1.0856,1.0847,1.0831,1.0819,1.0796,1.0788,1.0789,1.0751,1.0737,1.071,1.0706,1.0698,1.0692,1.0697,1.0675,1.0673,1.0671,1.0663,1.0661,1.0693,1.0693,1.0693,1.0693,0,1.0895,1.0879,1.087,1.0848,1.0836,1.082,1.0805,1.0794,1.0787,1.0776,1.0753,1.0736,1.0714,1.0707,1.0701,1.0679,1.0679,1.0678,1.068,1.067,1.0662,1.0659,1.0693,1.0693,1.0693,1.0693,0,0,1.0891,1.0861,1.0858,1.0847,1.0825,1.0812,1.0795,1.0774,1.0764,1.0747,1.0731,1.0706,1.0703,1.0691,1.0682,1.0669,1.0654,1.0669,1.0668,1.0665,1.0626,1.0627,1.0623,1.065,1.065,1.0649,1.0627,0,1.0878,1.0848,1.0837,1.0812,1.0796,1.0787,1.0771,1.0755,1.0743,1.0727,1.0713,1.0695,1.0695,1.0686,1.0674,1.0659,1.0646,1.066,1.0633,1.0632,1.0637,1.062,1.0621,1.0601,1.0624,1.0624,1.0624,0,1.0859,1.0842,1.0816,1.0794,1.0787,1.0774,1.0752,1.0737,1.0717,1.071,1.0694,1.0686,1.0665,1.0669,1.0639,1.0649,1.0637,1.0627,1.0626,1.0622,1.0627,1.0614,1.0595,1.0591,1.0619,1.0619,1.062,0,1.0857,1.0828,1.0808,1.0799,1.0773,1.0763,1.0751,1.0732,1.0719,1.07,1.0691,1.067,1.0658,1.064,1.0625,1.063,1.0595,1.0599,1.0586,1.0587,1.0579,1.058,1.0556,1.0574,1.0574,1.0574,1.0574,0,1.0843,1.0827,1.0806,1.0794,1.0774,1.076,1.0741,1.0729,1.0711,1.0694,1.0684,1.0668,1.065,1.0631,1.0619,1.0594,1.0589,1.0581,1.0577,1.0581,1.0582,1.0572,1.0572,1.0573,1.0573,1.0573,1.0574,0,1.0838,1.0823,1.08,1.0777,1.0771,1.0757,1.0736,1.0723,1.071,1.0689,1.0683,1.0662,1.0639,1.0622,1.0593,1.0584,1.0557,1.0555,1.0564,1.0562,1.055,1.0551,1.0519,1.0513,1.0536,1.0536,1.0536,0,1.083,1.0817,1.0792,1.078,1.0769,1.075,1.0737,1.0722,1.0708,1.0683,1.0672,1.0648,1.0629,1.0592,1.0573,1.0549,1.0545,1.0535,1.0541,1.0544,1.0542,1.0543,1.054,1.0534,1.0534,1.0534,1.0534,0,1.0816,1.0809,1.0791,1.077,1.0755,1.0737,1.0719,1.071,1.0691,1.0675,1.0652,1.0637,1.0606,1.0581,1.0555,1.0541,1.0533,1.0532,1.0528,1.053,1.0536,1.053,1.056,1.0533,1.0533,1.0533,1.0533,1.0533,1.0808,1.0795,1.0775,1.0755,1.0739,1.0722,1.0707,1.0692,1.0673,1.0647,1.0639,1.0614,1.0591,1.0555,1.0541,1.0519,1.0519,1.0514,1.0512,1.051,1.0509,1.054,1.0515,1.0515,1.0515,1.0515,1.0515,0,1.0793,1.0779,1.076,1.0735,1.0718,1.0713,1.0692,1.0678,1.0656,1.0636,1.0617,1.0588,1.0563,1.0542,1.0516,1.0503,1.0498,1.0496,1.0497,1.0493,1.0512,1.0517,1.05,1.05,1.05,1.05,1.05,1.05,1.0783,1.076,1.075,1.0719,1.0704,1.068,1.0668,1.0651,1.0635,1.0604,1.0584,1.057,1.0548,1.052,1.0497,1.0491,1.0481,1.0479,1.0472,1.049,1.0492,1.0493,1.0498,1.0478,1.0478,1.0455,1.0455,1.0454]},{"header":{"parameterUnit":"m.s-1","parameterCategory":1,"la1":30.2991,"la2":30.254,"lo1":-89.0895,"lo2":-89.0444,"dy":0.0017,"dx":0.0017,"nx":28,"ny":28,"refTime":"2025-09-17T21:00:00:Z","depth":0,"parameterNumber":3,"parameterNumberName":"V-component_of_WINDS"},"data":[0,0,0,0,0,0,0,0,0,0,0,0,0,0,0,0,0,0,0,0,0,0,0,0,0,0,0,0,0,0,0,0,0,0,0,0,0,0,0,0,0,0,0,0,0,0,0,0,0,0,0,0,0,0,0,0,0,0,-0.267,-0.2669,0,-0.2595,-0.2594,-0.2593,-0.2591,-0.2591,-0.2592,-0.2593,-0.2516,-0.2513,-0.2511,0,0,0,0,0,0,0,0,0,0,0,0,0,-0.2812,-0.281,-0.267,-0.2669,-0.2668,-0.2595,-0.2594,-0.2593,-0.259,-0.2591,-0.2593,-0.2594,-0.2517,-0.2514,-0.251,0,0,0,0,0,0,0,0,0,0,0,0,0,-0.2745,-0.2809,-0.267,-0.2658,-0.2656,-0.2595,-0.2594,-0.2592,-0.259,-0.2591,-0.2593,-0.2594,-0.2518,-0.2514,-0.251,-0.2456,0,0,-0.2497,-0.2495,0,0,0,0,0,0,0,0,-0.2749,-0.274,-0.2661,-0.2659,-0.2657,-0.2603,-0.2616,-0.2547,-0.259,-0.2615,-0.2593,-0.2595,-0.2544,-0.2538,-0.2521,-0.2452,-0.2449,-0.2496,-0.2494,-0.2492,-0.249,0,0,0,0,0,0,0,-0.2754,-0.2743,-0.264,-0.266,-0.2657,-0.2657,-0.2649,-0.2603,-0.2573,-0.2613,-0.2613,-0.2604,-0.2543,-0.2525,-0.2519,-0.2448,-0.2496,-0.2492,-0.249,-0.2488,-0.2332,-0.2331,0,0,0,0,0,0,-0.2761,-0.2747,-0.2643,-0.2638,-0.2707,-0.2653,-0.2644,-0.2619,-0.2573,-0.2568,-0.2603,-0.2604,-0.2532,-0.2524,-0.2516,-0.245,-0.2492,-0.2488,-0.2485,-0.2334,-0.2332,-0.233,0,0,0,0,0,0,-0.2764,-0.2751,-0.2646,-0.2692,-0.2679,-0.2649,-0.2621,-0.2617,-0.2598,-0.2566,-0.256,-0.2589,-0.2532,-0.2522,-0.2471,-0.2448,-0.2486,-0.2482,-0.2336,-0.2333,-0.2331,-0.2318,0,0,0,0,0,0,-0.2768,-0.2752,-0.2731,-0.2692,-0.2676,-0.2601,-0.262,-0.2614,-0.2591,-0.2592,-0.2552,-0.2546,-0.2533,-0.2478,-0.2467,-0.2442,-0.2478,-0.2338,-0.2335,-0.2332,-0.232,-0.2316,-0.2311,0,0,0,0,0,-0.2773,-0.273,-0.273,-0.2717,-0.2649,-0.26,-0.2591,-0.2576,-0.2589,-0.2568,-0.2547,-0.2548,-0.2452,-0.2472,-0.246,-0.2434,-0.2339,-0.2336,-0.2332,-0.2322,-0.2317,-0.2312,0,0,0,0,0,0,-0.2767,-0.2725,-0.2724,-0.2667,-0.2637,-0.26,-0.2572,-0.257,-0.2536,-0.2538,-0.2521,-0.2512,-0.2462,-0.2443,-0.2466,-0.238,-0.2397,-0.2391,-0.2394,-0.2388,-0.2384,-0.2389,-0.2475,0,0,0,0,0,-0.2759,-0.2722,-0.2688,-0.2641,-0.2626,-0.2602,-0.258,-0.2571,-0.2539,-0.2526,-0.2502,-0.2471,-0.2434,-0.241,-0.2374,-0.2318,-0.231,-0.2294,-0.229,-0.2286,-0.2281,-0.2251,-0.2244,-0.2319,-0.2319,-0.2319,0,0,-0.2742,-0.2714,-0.2692,-0.2639,-0.2615,-0.2578,-0.2591,-0.2551,-0.2523,-0.252,-0.247,-0.2452,-0.2416,-0.2363,-0.2338,-0.2345,-0.2259,-0.2282,-0.2279,-0.2276,-0.2247,-0.224,-0.2233,-0.2317,-0.2317,-0.2318,0,0,-0.2692,-0.2668,-0.2626,-0.2602,-0.2566,-0.255,-0.254,-0.2503,-0.249,-0.244,-0.2438,-0.2405,-0.2342,-0.2317,-0.2296,-0.2239,-0.2239,-0.2228,-0.2205,-0.2175,-0.2169,-0.2164,-0.2144,-0.2137,-0.2223,-0.2223,-0.2223,0,-0.2676,-0.2619,-0.2605,-0.2565,-0.2543,-0.2539,-0.2498,-0.2475,-0.2428,-0.2413,-0.2422,-0.2344,-0.2319,-0.226,-0.2247,-0.223,-0.2219,-0.2232,-0.2171,-0.2166,-0.2161,-0.2142,-0.2134,-0.2222,-0.2222,-0.2223,-0.2223,0,-0.2601,-0.2563,-0.2534,-0.249,-0.2464,-0.2423,-0.2403,-0.2379,-0.2373,-0.2357,-0.2307,-0.2278,-0.2237,-0.2222,-0.2216,-0.2163,-0.2169,-0.2175,-0.2192,-0.2153,-0.2135,-0.2127,-0.2221,-0.2221,-0.2221,-0.2222,0,0,-0.2544,-0.2494,-0.2484,-0.2464,-0.2424,-0.2394,-0.2354,-0.2314,-0.2294,-0.2262,-0.2229,-0.2176,-0.2182,-0.2159,-0.215,-0.2124,-0.2082,-0.2134,-0.2133,-0.2125,-0.2022,-0.2018,-0.2009,-0.2082,-0.208,-0.2079,-0.2025,0,-0.249,-0.2419,-0.2406,-0.2344,-0.2308,-0.2305,-0.2271,-0.2243,-0.2227,-0.2195,-0.2178,-0.2141,-0.2151,-0.2137,-0.2112,-0.2092,-0.2061,-0.2096,-0.2051,-0.2049,-0.2059,-0.2,-0.1994,-0.1944,-0.2018,-0.2017,-0.2016,0,-0.2417,-0.2385,-0.2319,-0.2285,-0.227,-0.2239,-0.2202,-0.2171,-0.214,-0.2131,-0.2105,-0.21,-0.2059,-0.2078,-0.2022,-0.2047,-0.2028,-0.2015,-0.2013,-0.2008,-0.203,-0.1993,-0.1928,-0.1921,-0.2004,-0.2005,-0.2006,0,-0.2382,-0.2322,-0.2275,-0.2259,-0.2218,-0.2197,-0.2179,-0.2149,-0.2126,-0.2094,-0.208,-0.2043,-0.2023,-0.1996,-0.1981,-0.1996,-0.1926,-0.1944,-0.1918,-0.1918,-0.1902,-0.1903,-0.1834,-0.189,-0.189,-0.1891,-0.1891,0,-0.2323,-0.2283,-0.2259,-0.223,-0.2186,-0.2172,-0.2129,-0.2111,-0.2085,-0.2054,-0.2049,-0.202,-0.2002,-0.197,-0.1958,-0.1914,-0.1905,-0.1897,-0.1894,-0.1897,-0.1898,-0.1884,-0.1887,-0.1889,-0.1889,-0.1889,-0.189,0,-0.2276,-0.2258,-0.2207,-0.2174,-0.2165,-0.2133,-0.2105,-0.2077,-0.2062,-0.2022,-0.2012,-0.1988,-0.1951,-0.1934,-0.1887,-0.1879,-0.1829,-0.1829,-0.1839,-0.1838,-0.1813,-0.1815,-0.1731,-0.1719,-0.1784,-0.1783,-0.1783,0,-0.2239,-0.2208,-0.2172,-0.2151,-0.2132,-0.2098,-0.2075,-0.2061,-0.2037,-0.2001,-0.1978,-0.194,-0.1909,-0.1849,-0.1828,-0.1793,-0.1791,-0.1765,-0.1786,-0.179,-0.1791,-0.1793,-0.179,-0.176,-0.176,-0.1759,-0.1759,0,-0.2176,-0.2169,-0.2136,-0.2101,-0.2074,-0.2045,-0.2017,-0.2,-0.1982,-0.1956,-0.1917,-0.1893,-0.1847,-0.1809,-0.1773,-0.1755,-0.1754,-0.1752,-0.1744,-0.1747,-0.1754,-0.175,-0.1828,-0.1754,-0.1755,-0.1755,-0.1755,-0.1755,-0.2133,-0.2106,-0.2076,-0.204,-0.2018,-0.1992,-0.1965,-0.1947,-0.1915,-0.1876,-0.187,-0.1829,-0.18,-0.1751,-0.1732,-0.1701,-0.1707,-0.1695,-0.1692,-0.169,-0.1688,-0.176,-0.1694,-0.1694,-0.1694,-0.1694,-0.1694,0,-0.2069,-0.205,-0.2018,-0.1979,-0.1951,-0.1953,-0.1923,-0.1899,-0.1864,-0.1837,-0.1807,-0.1764,-0.1728,-0.1705,-0.1669,-0.1649,-0.1647,-0.164,-0.1641,-0.1637,-0.1684,-0.1695,-0.1641,-0.1641,-0.1641,-0.1641,-0.1641,-0.1641,-0.2033,-0.1988,-0.1978,-0.1922,-0.1904,-0.1864,-0.1847,-0.1823,-0.1802,-0.1754,-0.1724,-0.171,-0.1685,-0.1648,-0.1615,-0.161,-0.1597,-0.1589,-0.1583,-0.1628,-0.1633,-0.1639,-0.1649,-0.1586,-0.1586,-0.1538,-0.1538,-0.1538]}]]